TimeMST,TemperatureF,Dew PointF,Humidity,Sea Level PressureIn,VisibilityMPH,Wind Direction,Wind SpeedMPH,Gust SpeedMPH,PrecipitationIn,Events,Conditions,WindDirDegrees,DateUTC
12:53 AM,28.9,19.9,69,29.94,10.0,West,9.2,-,N/A,,Mostly Cloudy,280,2013-11-04 07:53:00
1:53 AM,30.9,21.0,67,29.94,10.0,West,8.1,-,N/A,,Overcast,260,2013-11-04 08:53:00
2:53 AM,27.0,19.9,75,29.96,10.0,West,8.1,-,N/A,,Overcast,280,2013-11-04 09:53:00
3:53 AM,26.1,19.9,78,29.97,10.0,WNW,9.2,-,N/A,,Clear,290,2013-11-04 10:53:00
4:53 AM,23.0,19.0,85,30.00,10.0,West,8.1,-,N/A,,Clear,270,2013-11-04 11:53:00
5:53 AM,23.0,19.0,85,30.01,10.0,West,8.1,-,N/A,,Clear,270,2013-11-04 12:53:00
6:53 AM,21.9,18.0,85,30.03,10.0,West,3.5,-,N/A,,Clear,260,2013-11-04 13:53:00
7:53 AM,28.9,21.9,75,30.04,10.0,Calm,Calm,-,N/A,,Clear,0,2013-11-04 14:53:00
8:53 AM,30.9,21.9,69,30.04,10.0,Calm,Calm,-,N/A,,Mostly Cloudy,0,2013-11-04 15:53:00
9:53 AM,35.1,21.9,59,30.01,10.0,Calm,Calm,-,N/A,,Clear,0,2013-11-04 16:53:00
10:53 AM,37.0,21.9,54,30.01,10.0,Variable,3.5,-,N/A,,Partly Cloudy,0,2013-11-04 17:53:00
11:53 AM,35.1,21.9,59,30.00,10.0,Calm,Calm,-,N/A,,Scattered Clouds,0,2013-11-04 18:53:00
12:53 PM,37.0,23.0,57,29.99,10.0,NNE,5.8,-,0.00,,Overcast,20,2013-11-04 19:53:00
1:53 PM,36.0,23.0,59,29.98,10.0,NNE,9.2,-,N/A,,Overcast,30,2013-11-04 20:53:00
2:53 PM,37.9,24.1,57,29.99,10.0,ENE,11.5,-,N/A,,Overcast,60,2013-11-04 21:53:00
3:53 PM,35.1,23.0,61,30.02,10.0,NE,10.4,-,N/A,,Mostly Cloudy,50,2013-11-04 22:53:00
4:53 PM,32.0,21.9,66,30.05,10.0,NNE,9.2,-,N/A,,Overcast,30,2013-11-04 23:53:00
5:53 PM,30.9,21.9,69,30.08,10.0,NNE,6.9,-,N/A,,Mostly Cloudy,30,2013-11-05 00:53:00
6:53 PM,28.9,23.0,78,30.10,10.0,NE,5.8,-,N/A,,Scattered Clouds,40,2013-11-05 01:53:00
7:53 PM,28.0,21.9,78,30.09,10.0,NNE,6.9,-,N/A,,Clear,30,2013-11-05 02:53:00
8:53 PM,27.0,21.9,81,30.10,10.0,ENE,5.8,-,N/A,,Scattered Clouds,70,2013-11-05 03:53:00
9:53 PM,27.0,21.0,78,30.09,10.0,East,3.5,-,N/A,,Mostly Cloudy,100,2013-11-05 04:53:00
10:53 PM,26.1,21.0,81,30.09,10.0,Calm,Calm,-,N/A,,Partly Cloudy,0,2013-11-05 05:53:00
11:53 PM,25.0,23.0,92,30.11,10.0,NNW,5.8,-,N/A,,Mostly Cloudy,330,2013-11-05 06:53:00